Location: Boiro
(42.6475°N, 8.8834°W)
Time: 15:08:21
(UTC+01:00)

NLS 7.2/CANX 5 - Visible Passes

Search period start: 05 February 2023 00:00
Search period end: 15 February 2023 00:00
Orbit: 632 x 652 km, 98.4° (Epoch: 04 February)

Date Brightness Start Highest point End Pass type
(mag) Time Alt. Az. Time Alt. Az. Time Alt. Az.
05 Feb ? 19:19:41 10° N 19:23:54 41° WNW 19:28:06 10° SW visible
06 Feb ? 19:44:11 10° NNW 19:47:48 24° WNW 19:51:24 10° WSW visible
07 Feb ? 20:09:08 10° NNW 20:11:38 15° WNW 20:14:07 10° W visible
09 Feb ? 19:19:26 10° N 19:23:42 42° WNW 19:27:55 10° SW visible
10 Feb ? 19:43:55 10° NNW 19:47:35 25° WNW 19:51:14 10° WSW visible
11 Feb ? 20:08:50 10° NNW 20:11:24 15° WNW 20:13:57 10° W visible
14 Feb ? 19:43:38 10° NNW 19:47:19 25° WNW 19:51:00 10° WSW visible
